カタログに戻る

ARIANE 5 DEB

SYLDA

運用中GTO
NORAD 27717·DEBRIS·🇫🇷 France

打ち上げ Apr 9, 2003 から Guiana Space Centre

Loading…

TLE

経年Source: Space-Track

元期: Sep 14, 2026, 13:18 UTC

1 27717U 03013D   26257.55460413  .00000094  00000-0  82541-2 0  9996
2 27717   1.1565 221.7399 7088078  51.5120 163.6931  2.22484923190510

AllMySatでARIANE 5 DEBをリアルタイム追跡

Download on the App Store